GW2731 Weather Reports


Display with metric or nautical units.
time (UTC)temp
F
wind
direction
speed
MPH
gust
MPH
rain 1hr
in
rain 24hr
in
rain mn
in
humidity
%
barometer
mb
20260505085952 66 137 2.0 3.0 0.00 0.00 0.00 86 1005.1
20260505085450 66 109 2.0 6.0 0.00 0.00 0.00 86 1005.1
20260505084948 66 104 2.0 4.0 0.00 0.00 0.00 86 1005.3
20260505084446 66 88 3.0 7.0 0.00 0.00 0.00 85 1005.0
20260505083943 66 74 5.0 8.0 0.00 0.00 0.00 85 1005.1
20260505083441 66 79 2.0 4.0 0.00 0.00 0.00 84 1005.1
20260505082937 67 87 5.0 8.0 0.00 0.00 0.00 84 1005.3
20260505082432 67 87 3.0 4.0 0.00 0.00 0.00 83 1005.3
20260505081930 67 129 4.0 7.0 0.00 0.00 0.00 82 1005.4
20260505081427 68 91 3.0 8.0 0.00 0.00 0.00 82 1005.2
20260505080923 68 100 2.0 10.0 0.00 0.00 0.00 81 1005.2
20260505080419 68 90 3.0 4.0 0.00 0.00 0.00 80 1005.5
20260505075915 68 128 2.0 4.0 0.00 0.00 0.00 80 1005.5
20260505075412 68 99 5.0 9.0 0.00 0.00 0.00 80 1005.4
20260505074909 68 87 4.0 8.0 0.00 0.00 0.00 80 1005.4
20260505074406 68 107 5.0 6.0 0.00 0.00 0.00 80 1006.0
20260505073903 68 67 5.0 8.0 0.00 0.00 0.00 80 1005.9
20260505073401 68 38 3.0 7.0 0.00 0.00 0.00 81 1006.0
20260505072858 68 86 3.0 4.0 0.00 0.00 0.00 81 1005.6
20260505072354 68 84 1.0 6.0 0.00 0.00 0.00 81 1006.0
20260505071850 68 49 3.0 3.0 0.00 0.00 0.00 81 1006.0
20260505071347 68 105 1.0 1.0 0.00 0.00 0.00 81 1006.1
20260505070845 68 54 1.0 3.0 0.00 0.00 0.00 81 1006.0
20260505070341 68 90 0.0 4.0 0.00 0.00 0.00 81 1005.9
20260505065837 68 33 2.0 4.0 0.00 0.00 0.00 81 1006.4
20260505065334 68 73 1.0 3.0 0.00 0.00 0.00 81 1006.1
20260505064831 68 51 1.0 2.0 0.00 0.00 0.00 80 1006.2
20260505064327 68 14 2.0 2.0 0.00 0.00 0.00 80 1006.2
20260505063826 68 0 2.0 4.0 0.00 0.00 0.00 79 1006.0
20260505063321 68 38 2.0 3.0 0.00 0.00 0.00 79 1006.0
20260505062818 68 104 2.0 3.0 0.00 0.00 0.00 79 1006.0
20260505062316 68 136 1.0 4.0 0.00 0.00 0.00 79 1005.3
20260505061812 68 168 3.0 8.0 0.00 0.00 0.00 79 1005.2
20260505061311 68 156 1.0 6.0 0.00 0.00 0.00 79 1004.9
20260505060808 68 144 3.0 6.0 0.00 0.00 0.00 79 1005.1
20260505060305 68 148 3.0 8.0 0.00 0.00 0.00 78 1005.2
20260505055800 68 146 4.0 7.0 0.00 0.00 0.00 78 1005.2
20260505055256 68 179 2.0 9.0 0.00 0.00 0.00 78 1005.5
20260505054754 68 116 7.0 10.0 0.00 0.00 0.00 77 1005.3
20260505054251 68 176 3.0 8.0 0.00 0.00 0.00 77 1005.3
20260505053749 68 181 6.0 10.0 0.00 0.00 0.00 76 1005.6
20260505053246 69 162 4.0 10.0 0.00 0.00 0.00 76 1005.4
20260505052743 69 152 7.0 9.0 0.00 0.00 0.00 75 1005.5
20260505052240 69 149 5.0 13.0 0.00 0.00 0.00 75 1005.8
20260505051737 69 194 6.0 9.0 0.00 0.00 0.00 75 1005.4
20260505051235 69 156 6.0 11.0 0.00 0.00 0.00 74 1005.4
20260505050732 69 161 9.0 13.0 0.00 0.00 0.00 75 1005.4
20260505050231 69 148 4.0 8.0 0.00 0.00 0.00 76 1005.6
20260505041700 70 143 3.0 14.0 0.00 0.00 0.00 71 1005.8
20260505041158 70 193 3.0 13.0 0.00 0.00 0.00 71 1006.0
20260505040655 70 154 4.0 9.0 0.00 0.00 0.00 71 1005.6
20260505040152 69 134 4.0 10.0 0.00 0.00 0.00 72 1006.1
20260505035648 70 170 8.0 14.0 0.00 0.00 0.00 71 1005.8
20260505035144 70 148 6.0 11.0 0.00 0.00 0.00 70 1006.0
20260505034641 70 154 4.0 8.0 0.00 0.00 0.00 70 1006.0
20260505034139 70 188 5.0 10.0 0.00 0.00 0.00 69 1006.5
20260505033635 70 169 6.0 11.0 0.00 0.00 0.00 69 1006.4
20260505033133 70 197 6.0 10.0 0.00 0.00 0.00 69 1006.4
20260505032631 70 148 9.0 11.0 0.00 0.00 0.00 69 1006.4
20260505032127 70 153 4.0 11.0 0.00 0.00 0.00 70 1006.6
20260505031624 70 128 4.0 7.0 0.00 0.00 0.00 70 1006.7
20260505031120 69 123 2.0 8.0 0.00 0.00 0.00 70 1006.8
20260505030618 70 172 5.0 6.0 0.00 0.00 0.00 70 1006.9
20260505030113 70 153 4.0 6.0 0.00 0.00 0.00 69 1007.1
20260505025609 70 91 3.0 6.0 0.00 0.00 0.00 69 1006.9
20260505025108 70 146 4.0 7.0 0.00 0.00 0.00 69 1007.0
20260505024605 71 126 5.0 7.0 0.00 0.00 0.00 68 1007.2
20260505024103 71 171 7.0 8.0 0.00 0.00 0.00 68 1007.2
20260505023600 71 154 3.0 7.0 0.00 0.00 0.00 68 1007.0
20260505023057 71 166 2.0 4.0 0.00 0.00 0.00 68 1006.9
20260505022554 71 167 4.0 9.0 0.00 0.00 0.00 68 1006.9
20260505022051 71 176 3.0 7.0 0.00 0.00 0.00 67 1006.7
20260505021548 71 157 5.0 8.0 0.00 0.00 0.00 66 1006.9
20260505021045 71 159 3.0 9.0 0.00 0.00 0.00 67 1006.8
20260505020544 71 144 5.0 7.0 0.00 0.00 0.00 66 1006.8
20260505020042 72 159 5.0 8.0 0.00 0.00 0.00 66 1006.9
20260505015539 72 150 3.0 9.0 0.00 0.00 0.00 66 1007.0
20260505015035 72 145 4.0 8.0 0.00 0.00 0.00 66 1007.1
20260505014532 72 155 4.0 7.0 0.00 0.00 0.00 66 1006.8
20260505014029 72 163 4.0 10.0 0.00 0.00 0.00 65 1006.9
20260505013527 72 151 4.0 7.0 0.00 0.00 0.00 66 1006.9
20260505013024 72 152 3.0 8.0 0.00 0.00 0.00 66 1006.8
20260505012522 72 138 4.0 8.0 0.00 0.00 0.00 66 1006.8
20260505012019 72 161 3.0 8.0 0.00 0.00 0.00 66 1006.8
20260505011514 73 167 2.0 6.0 0.00 0.00 0.00 66 1006.8
20260505011011 73 172 3.0 8.0 0.00 0.00 0.00 65 1006.7
20260505010507 73 162 3.0 8.0 0.00 0.00 0.00 65 1006.8
20260505010004 73 161 6.0 13.0 0.00 0.00 0.00 64 1006.9
20260505005500 73 161 4.0 9.0 0.00 0.00 0.00 65 1006.7
20260505004958 74 142 2.0 6.0 0.00 0.00 0.00 65 1006.6
20260505004454 74 175 3.0 7.0 0.00 0.00 0.00 64 1006.6
20260505003951 74 172 2.0 7.0 0.00 0.00 0.00 63 1006.7
20260505003448 75 128 4.0 10.0 0.00 0.00 0.00 62 1006.7
20260505002944 75 181 4.0 7.0 0.00 0.00 0.00 62 1006.6
20260505002441 75 171 6.0 9.0 0.00 0.00 0.00 61 1006.7
20260505001939 75 162 5.0 9.0 0.00 0.00 0.00 61 1006.8
20260505001436 75 188 7.0 11.0 0.00 0.00 0.00 61 1006.9
20260505000933 75 185 3.0 8.0 0.00 0.00 0.00 61 1006.9
20260505000432 76 166 7.0 9.0 0.00 0.00 0.00 60 1006.9
20260504235928 76 155 8.0 13.0 0.00 0.00 0.00 60 1006.9
20260504235425 76 195 4.0 10.0 0.00 0.00 0.00 61 1006.9
20260504234921 76 206 4.0 6.0 0.00 0.00 0.00 60 1006.8
20260504234419 76 159 4.0 7.0 0.00 0.00 0.00 60 1006.8
20260504233915 77 177 6.0 8.0 0.00 0.00 0.00 59 1006.9
20260504233411 77 193 4.0 9.0 0.00 0.00 0.00 59 1007.1
20260504232908 77 142 3.0 13.0 0.00 0.00 0.00 59 1007.0
20260504232405 76 143 4.0 9.0 0.00 0.00 0.00 58 1007.0
20260504231902 77 178 4.0 13.0 0.00 0.00 0.00 58 1007.0
20260504231358 77 192 6.0 9.0 0.00 0.00 0.00 58 1007.1
20260504230855 77 193 7.0 15.0 0.00 0.00 0.00 58 1007.1
20260504230352 77 178 6.0 10.0 0.00 0.00 0.00 58 1007.0
20260504225851 77 183 3.0 10.0 0.00 0.00 0.00 58 1007.1
20260504225347 77 193 4.0 10.0 0.00 0.00 0.00 59 1006.9
20260504224844 77 200 4.0 9.0 0.00 0.00 0.00 58 1007.0
20260504224341 78 184 5.0 10.0 0.00 0.00 0.00 58 1007.2
20260504223838 77 193 4.0 13.0 0.00 0.00 0.00 57 1007.0
20260504223333 77 223 9.0 15.0 0.00 0.00 0.00 57 1006.9
20260504222830 78 213 11.0 15.0 0.00 0.00 0.00 56 1007.0
20260504222327 78 243 8.0 13.0 0.00 0.00 0.00 56 1006.8
20260504221826 77 164 6.0 10.0 0.00 0.00 0.00 57 1006.8
20260504221322 78 158 9.0 10.0 0.00 0.00 0.00 56 1006.7
20260504220819 78 147 7.0 9.0 0.00 0.00 0.00 56 1006.9
20260504220316 78 183 11.0 14.0 0.00 0.00 0.00 55 1007.0
20260504215813 78 197 12.0 16.0 0.00 0.00 0.00 56 1006.8
20260504215309 78 185 2.0 11.0 0.00 0.00 0.00 57 1007.3
20260504214805 78 139 6.0 11.0 0.00 0.00 0.00 56 1007.0
20260504214302 78 209 6.0 10.0 0.00 0.00 0.00 56 1007.2
20260504213759 78 165 8.0 14.0 0.00 0.00 0.00 56 1007.2
20260504213255 78 179 6.0 11.0 0.00 0.00 0.00 57 1007.3
20260504212753 78 197 4.0 13.0 0.00 0.00 0.00 57 1007.2
20260504212248 78 245 9.0 13.0 0.00 0.00 0.00 56 1007.4
20260504211746 78 145 5.0 15.0 0.00 0.00 0.00 56 1007.3
20260504211242 78 172 2.0 9.0 0.00 0.00 0.00 56 1007.3
20260504210740 78 197 7.0 16.0 0.00 0.00 0.00 56 1007.3
20260504210237 78 197 8.0 14.0 0.00 0.00 0.00 56 1007.4
20260504205734 78 178 6.0 17.0 0.00 0.00 0.00 56 1007.3
20260504205231 78 151 9.0 16.0 0.00 0.00 0.00 56 1007.3
20260504204729 78 189 5.0 9.0 0.00 0.00 0.00 57 1007.6
20260504204227 78 202 10.0 16.0 0.00 0.00 0.00 56 1007.7
20260504203727 78 130 11.0 15.0 0.00 0.00 0.00 56 1007.8
20260504203223 78 164 8.0 16.0 0.00 0.00 0.00 56 1007.8
20260504202718 78 169 7.0 16.0 0.00 0.00 0.00 56 1008.0
20260504202215 78 193 7.0 15.0 0.00 0.00 0.00 57 1008.0
20260504201712 78 208 11.0 17.0 0.00 0.00 0.00 56 1007.8
20260504201209 78 203 8.0 22.0 0.00 0.00 0.00 57 1007.9
20260504200707 78 216 12.0 16.0 0.00 0.00 0.00 55 1008.4
20260504200203 78 182 12.0 19.0 0.00 0.00 0.00 56 1008.1
20260504195659 78 135 14.0 19.0 0.00 0.00 0.00 56 1008.2
20260504195155 78 166 6.0 18.0 0.00 0.00 0.00 57 1008.3
20260504194653 79 126 7.0 11.0 0.00 0.00 0.00 57 1008.2
20260504194148 79 171 7.0 17.0 0.00 0.00 0.00 56 1008.3
20260504193645 78 196 4.0 16.0 0.00 0.00 0.00 57 1008.3
20260504193143 78 159 6.0 17.0 0.00 0.00 0.00 56 1008.5
20260504192640 78 209 11.0 16.0 0.00 0.00 0.00 56 1008.7
20260504192139 78 151 6.0 16.0 0.00 0.00 0.00 56 1008.5
20260504191637 78 206 7.0 23.0 0.00 0.00 0.00 57 1008.7
20260504191133 79 212 11.0 17.0 0.00 0.00 0.00 55 1008.8
20260504190629 78 191 5.0 11.0 0.00 0.00 0.00 57 1008.8
20260504190126 78 129 5.0 15.0 0.00 0.00 0.00 58 1008.9
20260504185622 78 191 11.0 19.0 0.00 0.00 0.00 57 1008.9
20260504185119 78 203 15.0 22.0 0.00 0.00 0.00 57 1008.9
20260504184614 79 150 8.0 18.0 0.00 0.00 0.00 58 1009.1
20260504184110 79 214 4.0 11.0 0.00 0.00 0.00 58 1009.0
20260504183607 78 164 12.0 16.0 0.00 0.00 0.00 57 1009.1
20260504183105 78 167 6.0 19.0 0.00 0.00 0.00 58 1009.3
20260504182602 79 156 11.0 19.0 0.00 0.00 0.00 57 1009.4
20260504182059 79 171 11.0 19.0 0.00 0.00 0.00 56 1009.3
20260504181556 78 210 7.0 18.0 0.00 0.00 0.00 56 1009.4
20260504181054 78 198 11.0 15.0 0.00 0.00 0.00 55 1009.7
20260504180553 79 165 12.0 17.0 0.00 0.00 0.00 55 1009.5
20260504180052 78 170 6.0 19.0 0.00 0.00 0.00 57 1009.8
20260504175548 78 208 9.0 13.0 0.00 0.00 0.00 56 1009.7
20260504175045 77 150 11.0 18.0 0.00 0.00 0.00 56 1009.9
20260504174543 77 211 9.0 18.0 0.00 0.00 0.00 57 1009.9
20260504174039 78 171 12.0 15.0 0.00 0.00 0.00 55 1010.1
20260504173536 77 202 9.0 17.0 0.00 0.00 0.00 56 1009.9
20260504173034 77 196 7.0 22.0 0.00 0.00 0.00 56 1010.0
20260504172530 77 166 9.0 17.0 0.00 0.00 0.00 56 1010.3
20260504172027 77 198 11.0 16.0 0.00 0.00 0.00 55 1010.1
20260504171524 77 157 12.0 17.0 0.00 0.00 0.00 55 1010.3
20260504171021 77 190 8.0 13.0 0.00 0.00 0.00 55 1010.3
20260504170516 76 146 4.0 18.0 0.00 0.00 0.00 57 1010.1
20260504160437 75 211 8.0 21.0 0.00 0.00 0.00 55 1010.6
20260504150900 72 213 11.0 19.0 0.00 0.00 0.00 55 1011.3
20260504150357 71 225 5.0 14.0 0.00 0.00 0.00 57 1011.3
20260504141327 68 194 7.0 15.0 0.00 0.00 0.00 60 1011.3
20260504140823 68 227 10.0 16.0 0.00 0.00 0.00 60 1011.7
20260504140319 68 195 4.0 7.0 0.00 0.00 0.00 61 1011.6
20260504130748 65 203 5.0 16.0 0.00 0.00 0.00 64 1012.2
20260504130244 64 211 4.0 9.0 0.00 0.00 0.00 66 1012.1
20260504120208 62 205 5.0 10.0 0.00 0.00 0.00 67 1011.8
20260504110635 63 171 4.0 9.0 0.00 0.00 0.00 66 1011.9
20260504110131 63 192 5.0 14.0 0.00 0.00 0.00 65 1011.9
20260504100557 64 210 6.0 9.0 0.00 0.00 0.00 64 1012.4